View from above orbital plane
|
View from above satellite
|
Ground track
|
The orbit data is extracted from the following two-line orbital elements,
1 36279U 99025DXG 22138.86690053 .00000195 00000-0 12261-3 0 9995
2 36279 98.5171 161.3579 0062627 194.9527 164.9797 14.13668275706113
Epoch (UTC): | 18 May 2022 20:48:20 |
Eccentricity: | 0.0062627 |
inclination: | 98.5171° |
perigee height: | 801 km |
apogee height: | 892 km |
right ascension of ascending node: | 161.3579° |
argument of perigee: | 194.9527° |
revolutions per day: | 14.13668275 |
mean anomaly at epoch: | 164.9797° |
orbit number at epoch: | 70611 |
The dashed part of the orbit path shows where the satellite is in the earth's shadow,
|
|